Weather History for KSUX - December, 2013

Change the Weather History Date:

Tuesday, December 31, 2013

  Actual Average Record
Temperature  
Mean Temperature 12 °F 20 °F  
Max Temperature 17 °F 30 °F 60 °F (1904)
Min Temperature 6 °F 10 °F -19 °F (1968)
Degree Days  
Heating Degree Days 53 45  
Month to date heating degree days 1450 1317  
Since 1 July heating degree days 2874 2792  
Cooling Degree Days 0 0  
Month to date cooling degree days 0 0  
Year to date cooling degree days 960 869  
Moisture  
Dew Point 4 °F    
Average Humidity 73    
Maximum Humidity 84    
Minimum Humidity 59    
Precipitation  
Precipitation T in 0.02 in 1.10 in (1931)
Month to date precipitation 0.18 0.80  
Year to date precipitation 26.73 27.74  
Snow  
Snow T in 0.20 in 5.00 in (1916)
Month to date snowfall 2.3 7.8  
Since 1 July snowfall 3.2 13.2  
Snow Depth 0.00 in    
Sea Level Pressure  
Sea Level Pressure 30.26 in    
Wind  
Wind Speed 9 mph (ENE)    
Max Wind Speed 18 mph    
Max Gust Speed 22 mph    
Visibility 10 miles    
Events Snow    
T = Trace of Precipitation, MM = Missing Value Source: NWS Daily Summary

Daily Weather History Graph

Daily Weather History Graph

Search for Another Location

Airport or City:

Trip Planner

Search our weather history database for the weather conditions in past years. The results will help you decide how hot, cold, wet, or windy it might be!

Date:

Astronomy

Dec. 31, 2013 Rise Set
Actual Time 7:54 AM CST 5:02 PM CST
Civil Twilight 7:22 AM CST 5:34 PM CST
Nautical Twilight 6:47 AM CST 6:10 PM CST
Astronomical Twilight 6:13 AM CST 6:44 PM CST
Moon 6:47 AM CST (12/31) 4:41 PM CST (12/31)
Length of Visible Light 10h 11m
Length of Day
9h 08m
Waning Crescent, 1% of the Moon is Illuminated
Dec 31
Waning Crescent
Jan 1
New
Jan 7
First Quarter
Jan 15
Full
Jan 23
Last Quarter

Hourly Weather History & Observations

Time (CST) Temp. Windchill Dew Point Humidity Pressure Visibility Wind Dir Wind Speed Gust Speed Precip Events Conditions
12:52 AM 7.0 °F 0.1 °F 3.0 °F 84% 30.32 in 10.0 mi WNW 3.5 mph - N/A   Overcast
1:52 AM 10.0 °F -1.9 °F 3.9 °F 76% 30.28 in 10.0 mi NNW 8.1 mph - N/A   Overcast
2:52 AM 9.0 °F - 3.9 °F 80% 30.30 in 10.0 mi Calm Calm - N/A   Overcast
3:52 AM 10.9 °F 2.9 °F 5.0 °F 77% 30.30 in 10.0 mi West 4.6 mph - N/A   Overcast
4:52 AM 10.9 °F 0.2 °F 3.0 °F 70% 30.28 in 10.0 mi North 6.9 mph - N/A   Overcast
5:52 AM 10.0 °F - 3.0 °F 73% 30.28 in 10.0 mi Calm Calm - N/A   Clear
6:52 AM 9.0 °F -0.9 °F 3.9 °F 80% 30.28 in 10.0 mi SE 5.8 mph - N/A   Scattered Clouds
7:52 AM 8.1 °F -4.3 °F 3.9 °F 83% 30.25 in 10.0 mi SE 8.1 mph - N/A   Overcast
8:52 AM 9.0 °F -5.9 °F 5.0 °F 84% 30.24 in 10.0 mi ESE 11.5 mph - N/A   Mostly Cloudy
9:52 AM 12.0 °F -2.0 °F 5.0 °F 73% 30.23 in 10.0 mi SE 11.5 mph - N/A   Overcast
10:52 AM 14.0 °F 2.0 °F 7.0 °F 74% 30.22 in 10.0 mi ENE 9.2 mph - N/A   Mostly Cloudy
11:52 AM 17.1 °F 3.6 °F 9.0 °F 71% 30.19 in 10.0 mi East 12.7 mph - N/A   Partly Cloudy
12:52 PM 17.1 °F 3.0 °F 9.0 °F 71% 30.18 in 10.0 mi East 13.8 mph - N/A   Overcast
12:55 PM 17.1 °F 2.5 °F 9.0 °F 71% 30.11 in 10.0 mi East 15.0 mph - N/A   Overcast
1:52 PM 15.1 °F -0.6 °F 7.0 °F 70% 30.19 in 10.0 mi ENE 16.1 mph - 0.00 in   Overcast
2:49 PM 14.0 °F -1.4 °F 6.8 °F 73% 30.15 in 9.0 mi ENE 15.0 mph - N/A   Overcast
2:52 PM 14.0 °F -1.4 °F 6.1 °F 71% 30.22 in 9.0 mi ENE 15.0 mph - N/A   Overcast
3:52 PM 12.9 °F -2.8 °F 5.0 °F 71% 30.25 in 10.0 mi East 15.0 mph - 0.00 in   Overcast
4:52 PM 10.9 °F -1.8 °F 3.9 °F 73% 30.28 in 10.0 mi ENE 9.2 mph - 0.00 in   Overcast
5:52 PM 10.0 °F -4.5 °F 3.0 °F 73% 30.28 in 10.0 mi ENE 11.5 mph - 0.00 in   Overcast
6:52 PM 9.0 °F -5.1 °F 1.9 °F 73% 30.31 in 10.0 mi ENE 10.4 mph - N/A   Overcast
7:52 PM 9.0 °F -3.2 °F 1.9 °F 73% 30.31 in 10.0 mi ENE 8.1 mph - N/A   Overcast
8:52 PM 8.1 °F -7.0 °F 1.0 °F 73% 30.32 in 10.0 mi NE 11.5 mph - N/A   Overcast
9:52 PM 7.0 °F -8.3 °F -0.0 °F 73% 30.30 in 10.0 mi ENE 11.5 mph - N/A   Overcast
10:52 PM 7.0 °F -7.5 °F -0.0 °F 73% 30.30 in 10.0 mi ENE 10.4 mph - N/A   Overcast
11:52 PM 7.0 °F -7.5 °F 1.0 °F 77% 30.29 in 6.0 mi East 10.4 mph - 0.00 in Snow Light Snow